Private Wetterstation Wechselburg
Wetterdaten: Mittwoch, 13.01.2010
Datum Zeit Temp. +2m Bodentemp. Temp.+5cm Temp. Wind Windchill X Diff Temp. Feuchte +2m Feuchte +5cm Sonnenschein Luftdruck Regen Wind Richtung Richtung Sonnenschein UV Taupunkt Windchill Windben
13.01.2010 00:00 -8,3 C 1,9 C -8,5 C -8,9 C -10,2 C 0,0 C 83 % 90 % 0 % 1013,6 hPa 0,0 l/m 0,0 km/h (0 Bft) NO 45 0 min 0,0 UV-I -10,7 C -10,2 C 0,0 km/h (0 Bft)
13.01.2010 00:10 -8,5 C 1,9 C -8,9 C -9,3 C -10,8 C 0,0 C 83 % 90 % 0 % 1013,6 hPa 0,0 l/m 0,0 km/h (0 Bft) NO 45 0 min 0,0 UV-I -10,9 C -10,8 C 0,0 km/h (0 Bft)
13.01.2010 00:15 -8,5 C 1,9 C -9,1 C -9,4 C -11,3 C 0,0 C 83 % 90 % 0 % 1013,6 hPa 0,0 l/m 0,0 km/h (0 Bft) NO 45 0 min 0,0 UV-I -10,9 C -11,3 C 0,0 km/h (0 Bft)
13.01.2010 00:20 -8,7 C 1,9 C -9,3 C -9,6 C -11,4 C 0,0 C 83 % 90 % 0 % 1013,6 hPa 0,0 l/m 0,0 km/h (0 Bft) NO 45 0 min 0,0 UV-I -11,0 C -11,4 C 0,0 km/h (0 Bft)
13.01.2010 00:25 -8,8 C 1,9 C -9,4 C -9,8 C -11,8 C 0,0 C 83 % 90 % 0 % 1013,6 hPa 0,0 l/m 0,0 km/h (0 Bft) NO 45 0 min 0,0 UV-I -11,1 C -11,8 C 0,0 km/h (0 Bft)
13.01.2010 00:30 -8,9 C 1,9 C -9,5 C -9,9 C -11,9 C 0,0 C 83 % 90 % 0 % 1013,6 hPa 0,0 l/m 0,0 km/h (0 Bft) NO 45 0 min 0,0 UV-I -11,2 C -11,9 C 0,0 km/h (0 Bft)
13.01.2010 00:35 -8,9 C 1,9 C -9,6 C -9,9 C -12,0 C 0,0 C 83 % 90 % 0 % 1013,1 hPa 0,0 l/m 0,0 km/h (0 Bft) NO 45 0 min 0,0 UV-I -11,2 C -12,0 C 0,0 km/h (0 Bft)
13.01.2010 00:40 -8,9 C 1,9 C -9,7 C -9,9 C -11,9 C 0,0 C 83 % 90 % 0 % 1013,1 hPa 0,0 l/m 0,0 km/h (0 Bft) NO 45 0 min 0,0 UV-I -11,2 C -11,9 C 0,0 km/h (0 Bft)
13.01.2010 00:45 -8,9 C 1,9 C -9,9 C -9,9 C -12,0 C 0,0 C 83 % 90 % 0 % 1013,1 hPa 0,0 l/m 0,0 km/h (0 Bft) NO 45 0 min 0,0 UV-I -11,2 C -12,0 C 0,0 km/h (0 Bft)
13.01.2010 00:50 -8,9 C 1,9 C -10,0 C -9,9 C -11,9 C 0,0 C 83 % 90 % 0 % 1013,1 hPa 0,0 l/m 0,0 km/h (0 Bft) NO 45 0 min 0,0 UV-I -11,2 C -11,9 C 0,0 km/h (0 Bft)
13.01.2010 00:55 -9,1 C 1,9 C -10,1 C -10,0 C -11,9 C 0,0 C 83 % 90 % 0 % 1013,1 hPa 0,0 l/m 0,0 km/h (0 Bft) NO 45 0 min 0,0 UV-I -11,4 C -11,9 C 0,0 km/h (0 Bft)
13.01.2010 01:00 -9,2 C 1,9 C -10,3 C -10,1 C -11,8 C 0,0 C 83 % 90 % 0 % 1013,1 hPa 0,0 l/m 0,0 km/h (0 Bft) NO 45 0 min 0,0 UV-I -11,5 C -11,8 C 0,0 km/h (0 Bft)
13.01.2010 01:10 -9,3 C 1,9 C -10,5 C -10,1 C -11,7 C 0,0 C 84 % 90 % 0 % 1013,1 hPa 0,0 l/m 0,2 km/h (0 Bft) NO 45 0 min 0,0 UV-I -11,5 C -11,7 C 0,0 km/h (0 Bft)
13.01.2010 01:15 -9,5 C 1,9 C -10,5 C -10,3 C -11,8 C 0,0 C 84 % 90 % 0 % 1013,5 hPa 0,0 l/m 0,2 km/h (0 Bft) NO 45 0 min 0,0 UV-I -11,7 C -11,8 C 0,0 km/h (0 Bft)
13.01.2010 01:20 -9,6 C 1,9 C -10,6 C -10,4 C -11,9 C 0,0 C 83 % 90 % 0 % 1013,5 hPa 0,0 l/m 0,0 km/h (0 Bft) NO 45 0 min 0,0 UV-I -11,9 C -11,9 C 0,0 km/h (0 Bft)
13.01.2010 01:25 -9,7 C 1,9 C -10,8 C -10,5 C -12,0 C 0,0 C 83 % 90 % 0 % 1013,5 hPa 0,0 l/m 0,0 km/h (0 Bft) NO 45 0 min 0,0 UV-I -12,0 C -12,0 C 0,0 km/h (0 Bft)
13.01.2010 01:30 -9,9 C 1,9 C -10,8 C -10,7 C -12,3 C 0,0 C 83 % 90 % 0 % 1013,5 hPa 0,0 l/m 0,0 km/h (0 Bft) NO 45 0 min 0,0 UV-I -12,2 C -12,3 C 0,0 km/h (0 Bft)
13.01.2010 01:35 -10,0 C 1,9 C -10,8 C -10,8 C -12,5 C 0,0 C 83 % 90 % 0 % 1012,8 hPa 0,0 l/m 0,0 km/h (0 Bft) NO 45 0 min 0,0 UV-I -12,3 C -12,5 C 0,0 km/h (0 Bft)
13.01.2010 01:40 -10,0 C 1,9 C -10,9 C -10,8 C -12,5 C 0,0 C 84 % 90 % 0 % 1012,8 hPa 0,0 l/m 0,0 km/h (0 Bft) NO 45 0 min 0,0 UV-I -12,2 C -12,5 C 0,0 km/h (0 Bft)
13.01.2010 01:45 -10,1 C 1,9 C -10,9 C -10,9 C -12,6 C 0,0 C 84 % 90 % 0 % 1012,8 hPa 0,0 l/m 0,0 km/h (0 Bft) NO 45 0 min 0,0 UV-I -12,3 C -12,6 C 0,0 km/h (0 Bft)
13.01.2010 01:50 -10,1 C 1,9 C -10,9 C -10,9 C -12,6 C 0,0 C 84 % 90 % 0 % 1012,8 hPa 0,0 l/m 0,0 km/h (0 Bft) NO 45 0 min 0,0 UV-I -12,3 C -12,6 C 0,0 km/h (0 Bft)
13.01.2010 01:55 -10,1 C 1,9 C -11,1 C -11,0 C -12,8 C 0,0 C 84 % 90 % 0 % 1013,1 hPa 0,0 l/m 0,0 km/h (0 Bft) NO 45 0 min 0,0 UV-I -12,3 C -12,8 C 0,0 km/h (0 Bft)
13.01.2010 02:00 -10,1 C 1,9 C -11,1 C -11,0 C -12,9 C 0,0 C 84 % 90 % 0 % 1013,1 hPa 0,0 l/m 0,0 km/h (0 Bft) NO 45 0 min 0,0 UV-I -12,3 C -12,9 C 0,0 km/h (0 Bft)
13.01.2010 02:10 -10,3 C 1,8 C -11,3 C -11,2 C -12,9 C 0,0 C 84 % 90 % 0 % 1013,1 hPa 0,0 l/m 0,0 km/h (0 Bft) NO 45 0 min 0,0 UV-I -12,5 C -12,9 C 0,0 km/h (0 Bft)
13.01.2010 02:15 -10,5 C 1,8 C -11,3 C -11,3 C -12,9 C 0,0 C 83 % 90 % 0 % 1013,1 hPa 0,0 l/m 0,0 km/h (0 Bft) NO 45 0 min 0,0 UV-I -12,8 C -12,9 C 0,0 km/h (0 Bft)
13.01.2010 02:20 -10,5 C 1,8 C -11,5 C -11,3 C -12,9 C 0,0 C 83 % 90 % 0 % 1013,1 hPa 0,0 l/m 0,0 km/h (0 Bft) NO 45 0 min 0,0 UV-I -12,8 C -12,9 C 0,0 km/h (0 Bft)
13.01.2010 02:25 -10,5 C 1,9 C -11,5 C -11,4 C -13,1 C 0,0 C 83 % 90 % 0 % 1013,1 hPa 0,0 l/m 0,0 km/h (0 Bft) NO 45 0 min 0,0 UV-I -12,8 C -13,1 C 0,0 km/h (0 Bft)
13.01.2010 02:30 -10,5 C 1,9 C -11,3 C -11,4 C -13,1 C 0,0 C 83 % 91 % 0 % 1013,1 hPa 0,0 l/m 0,0 km/h (0 Bft) NO 45 0 min 0,0 UV-I -12,8 C -13,1 C 0,0 km/h (0 Bft)
13.01.2010 02:35 -10,5 C 1,9 C -11,3 C -11,4 C -13,1 C 0,0 C 84 % 91 % 0 % 1012,8 hPa 0,0 l/m 0,0 km/h (0 Bft) NO 45 0 min 0,0 UV-I -12,7 C -13,1 C 0,0 km/h (0 Bft)
13.01.2010 02:40 -10,5 C 2,0 C -11,5 C -11,4 C -13,1 C 0,0 C 84 % 91 % 0 % 1012,8 hPa 0,0 l/m 0,0 km/h (0 Bft) NO 45 0 min 0,0 UV-I -12,7 C -13,1 C 0,0 km/h (0 Bft)
13.01.2010 02:45 -10,5 C 1,9 C -11,5 C -11,3 C -12,9 C 0,0 C 84 % 91 % 0 % 1012,8 hPa 0,0 l/m 0,0 km/h (0 Bft) NO 45 0 min 0,0 UV-I -12,7 C -12,9 C 0,0 km/h (0 Bft)
13.01.2010 02:50 -10,4 C 1,9 C -11,3 C -11,2 C -12,8 C 0,0 C 84 % 91 % 0 % 1012,8 hPa 0,0 l/m 0,0 km/h (0 Bft) NO 45 0 min 0,0 UV-I -12,6 C -12,8 C 0,0 km/h (0 Bft)
13.01.2010 02:55 -10,1 C 1,8 C -11,3 C -10,9 C -12,4 C 0,0 C 86 % 91 % 0 % 1012,8 hPa 0,0 l/m 0,0 km/h (0 Bft) NO 45 0 min 0,0 UV-I -12,0 C -12,4 C 0,0 km/h (0 Bft)
13.01.2010 03:00 -9,7 C 1,9 C -11,2 C -10,4 C -11,8 C 0,0 C 88 % 91 % 0 % 1012,8 hPa 0,0 l/m 0,5 km/h (0 Bft) NO 45 0 min 0,0 UV-I -11,3 C -11,8 C 2,7 km/h (1 Bft)
13.01.2010 03:10 -8,8 C 1,9 C -9,3 C -9,9 C -12,2 C 0,0 C 89 % 93 % 0 % 1012,8 hPa 0,0 l/m 4,0 km/h (1 Bft) NO 45 0 min 0,0 UV-I -10,3 C -12,2 C 5,0 km/h (1 Bft)
13.01.2010 03:15 -8,5 C 1,9 C -9,2 C -9,6 C -11,9 C 0,0 C 89 % 93 % 0 % 1012,8 hPa 0,0 l/m 4,3 km/h (1 Bft) NO 45 0 min 0,0 UV-I -10,0 C -11,9 C 6,0 km/h (2 Bft)
13.01.2010 03:20 -8,5 C 1,9 C -8,8 C -9,6 C -11,7 C 0,0 C 89 % 93 % 0 % 1012,8 hPa 0,0 l/m 4,3 km/h (1 Bft) NO 45 0 min 0,0 UV-I -10,0 C -11,7 C 5,5 km/h (1 Bft)
13.01.2010 03:25 -8,3 C 1,9 C -8,5 C -9,6 C -12,3 C 0,0 C 89 % 93 % 0 % 1012,8 hPa 0,0 l/m 5,8 km/h (2 Bft) NO 45 0 min 0,0 UV-I -9,8 C -16,0 C 10,3 km/h (2 Bft)
13.01.2010 03:30 -8,1 C 1,9 C -8,4 C -9,7 C -12,8 C 0,0 C 89 % 93 % 0 % 1012,8 hPa 0,0 l/m 7,4 km/h (2 Bft) NO 45 0 min 0,0 UV-I -9,6 C -17,5 C 9,7 km/h (2 Bft)
13.01.2010 03:35 -8,0 C 1,9 C -8,1 C -9,2 C -13,1 C 0,0 C 89 % 93 % 0 % 1012,8 hPa 0,0 l/m 8,9 km/h (2 Bft) NO 45 0 min 0,0 UV-I -9,5 C -18,5 C 11,6 km/h (2 Bft)
13.01.2010 03:40 -7,9 C 2,0 C -8,0 C -9,6 C -13,1 C 0,0 C 89 % 93 % 0 % 1012,8 hPa 0,0 l/m 9,7 km/h (2 Bft) NO 45 0 min 0,0 UV-I -9,4 C -18,8 C 14,0 km/h (3 Bft)
13.01.2010 03:45 -7,7 C 2,0 C -7,8 C -9,5 C -13,1 C 0,0 C 89 % 93 % 0 % 1012,8 hPa 0,0 l/m 9,8 km/h (2 Bft) NO 45 0 min 0,0 UV-I -9,2 C -18,9 C 11,9 km/h (2 Bft)
13.01.2010 03:50 -7,7 C 2,0 C -7,7 C -8,9 C -12,8 C 0,0 C 89 % 93 % 0 % 1012,8 hPa 0,0 l/m 9,5 km/h (2 Bft) NO 45 0 min 0,0 UV-I -9,2 C -18,4 C 10,9 km/h (2 Bft)
13.01.2010 03:55 -7,7 C 2,0 C -7,7 C -8,9 C -13,0 C 0,0 C 89 % 92 % 0 % 1012,1 hPa 0,0 l/m 10,0 km/h (2 Bft) NO 45 0 min 0,0 UV-I -9,2 C -18,8 C 14,5 km/h (3 Bft)
13.01.2010 04:00 -7,6 C 2,0 C -7,6 C -8,9 C -13,1 C 0,0 C 88 % 92 % 0 % 1012,1 hPa 0,0 l/m 10,3 km/h (2 Bft) NO 45 0 min 0,0 UV-I -9,2 C -19,1 C 10,6 km/h (2 Bft)
13.01.2010 04:10 -7,6 C 2,0 C -7,6 C -8,8 C -12,5 C 0,0 C 88 % 92 % 0 % 1012,1 hPa 0,0 l/m 8,4 km/h (2 Bft) NO 45 0 min 0,0 UV-I -9,2 C -17,6 C 9,8 km/h (2 Bft)
13.01.2010 04:15 -7,7 C 2,0 C -7,7 C -9,0 C -11,5 C 0,0 C 88 % 92 % 0 % 1011,6 hPa 0,0 l/m 6,0 km/h (2 Bft) NO 45 0 min 0,0 UV-I -9,3 C -15,2 C 5,1 km/h (1 Bft)
13.01.2010 04:20 -7,7 C 2,0 C -7,7 C -8,9 C -11,2 C 0,0 C 88 % 92 % 0 % 1011,6 hPa 0,0 l/m 5,0 km/h (1 Bft) NO 45 0 min 0,0 UV-I -9,3 C -14,3 C 4,0 km/h (1 Bft)
13.01.2010 04:25 -7,7 C 2,0 C -7,7 C -8,6 C -10,4 C 0,0 C 88 % 92 % 0 % 1011,6 hPa 0,0 l/m 3,7 km/h (1 Bft) NO 45 0 min 0,0 UV-I -9,3 C -10,4 C 3,2 km/h (1 Bft)
13.01.2010 04:30 -7,7 C 2,0 C -7,7 C -8,4 C -9,9 C 0,0 C 87 % 91 % 0 % 1011,6 hPa 0,0 l/m 2,9 km/h (1 Bft) NO 45 0 min 0,0 UV-I -9,5 C -9,9 C 2,6 km/h (1 Bft)
13.01.2010 04:35 -8,0 C 2,0 C -7,9 C -8,6 C -9,8 C 0,0 C 87 % 91 % 0 % 1011,7 hPa 0,0 l/m 2,4 km/h (1 Bft) NO 45 0 min 0,0 UV-I -9,8 C -9,8 C 2,6 km/h (1 Bft)
13.01.2010 04:40 -8,0 C 2,0 C -8,1 C -8,7 C -10,2 C 0,0 C 87 % 91 % 0 % 1011,7 hPa 0,0 l/m 2,6 km/h (1 Bft) NO 45 0 min 0,0 UV-I -9,8 C -10,2 C 2,9 km/h (1 Bft)
13.01.2010 04:42 -8,1 C 2,0 C -8,2 C -8,6 C -9,6 C 0,0 C 87 % 91 % 0 % 1011,7 hPa 0,0 l/m 2,1 km/h (1 Bft) NO 45 0 min 0,0 UV-I -9,9 C -9,6 C 2,7 km/h (1 Bft)
13.01.2010 04:47 -8,1 C 2,0 C -8,1 C -8,6 C -9,5 C 0,0 C 88 % 91 % 0 % 1011,7 hPa 0,0 l/m 1,9 km/h (1 Bft) NO 45 0 min 0,0 UV-I -9,7 C -9,5 C 3,2 km/h (1 Bft)
13.01.2010 04:52 -7,9 C 2,0 C -8,1 C -8,7 C -10,3 C 0,0 C 88 % 92 % 0 % 1011,7 hPa 0,0 l/m 2,7 km/h (1 Bft) NO 45 0 min 0,0 UV-I -9,5 C -10,3 C 3,9 km/h (1 Bft)
13.01.2010 04:57 -7,7 C 2,0 C -8,0 C -8,8 C -11,0 C 0,0 C 89 % 92 % 0 % 1011,7 hPa 0,0 l/m 3,7 km/h (1 Bft) NO 45 0 min 0,0 UV-I -9,2 C -11,0 C 5,8 km/h (2 Bft)
13.01.2010 04:59 -7,7 C 2,0 C -8,0 C -8,8 C -11,0 C 0,0 C 89 % 92 % 0 % 1011,7 hPa 0,0 l/m 3,7 km/h (1 Bft) NO 45 0 min 0,0 UV-I -9,2 C -11,0 C 5,8 km/h (2 Bft)
13.01.2010 05:05 -7,7 C 2,0 C -7,7 C -8,9 C -11,2 C 0,0 C 89 % 92 % 0 % 1011,7 hPa 0,0 l/m 4,5 km/h (1 Bft) NO 45 0 min 0,0 UV-I -9,2 C -11,2 C 4,7 km/h (1 Bft)
13.01.2010 05:10 -7,7 C 2,0 C -7,7 C -8,8 C -11,1 C 0,0 C 89 % 92 % 0 % 1011,7 hPa 0,0 l/m 4,3 km/h (1 Bft) NO 45 0 min 0,0 UV-I -9,2 C -11,1 C 6,1 km/h (2 Bft)
13.01.2010 05:15 -7,5 C 2,0 C -7,5 C -8,6 C -10,7 C 0,0 C 89 % 92 % 0 % 1011,8 hPa 0,0 l/m 4,2 km/h (1 Bft) NO 45 0 min 0,0 UV-I -9,0 C -10,7 C 5,0 km/h (1 Bft)
13.01.2010 05:20 -7,6 C 2,0 C -7,6 C -8,6 C -10,7 C 0,0 C 89 % 92 % 0 % 1011,8 hPa 0,0 l/m 4,2 km/h (1 Bft) NO 45 0 min 0,0 UV-I -9,1 C -10,7 C 4,3 km/h (1 Bft)
13.01.2010 05:25 -7,5 C 2,0 C -7,5 C -8,7 C -11,0 C 0,0 C 89 % 92 % 0 % 1011,8 hPa 0,0 l/m 4,8 km/h (1 Bft) NO 45 0 min 0,0 UV-I -9,0 C -13,9 C 6,6 km/h (2 Bft)
13.01.2010 05:30 -7,5 C 2,0 C -7,5 C -8,7 C -11,2 C 0,0 C 89 % 92 % 0 % 1011,8 hPa 0,0 l/m 5,3 km/h (1 Bft) NO 45 0 min 0,0 UV-I -9,0 C -14,5 C 5,5 km/h (1 Bft)
13.01.2010 05:35 -7,5 C 2,0 C -7,5 C -8,6 C -10,8 C 0,0 C 89 % 92 % 0 % 1011,8 hPa 0,0 l/m 4,5 km/h (1 Bft) NO 45 0 min 0,0 UV-I -9,0 C -10,8 C 4,3 km/h (1 Bft)
13.01.2010 05:40 -7,5 C 2,0 C -7,5 C -8,4 C -10,3 C 0,0 C 89 % 92 % 0 % 1011,8 hPa 0,0 l/m 3,9 km/h (1 Bft) NO 45 0 min 0,0 UV-I -9,0 C -10,3 C 4,2 km/h (1 Bft)
13.01.2010 05:45 -7,5 C 2,0 C -7,5 C -8,5 C -10,6 C 0,0 C 89 % 92 % 0 % 1011,8 hPa 0,0 l/m 4,0 km/h (1 Bft) NO 45 0 min 0,0 UV-I -9,0 C -10,6 C 6,1 km/h (2 Bft)
13.01.2010 05:50 -7,5 C 2,0 C -7,5 C -8,6 C -10,7 C 0,0 C 89 % 92 % 0 % 1011,8 hPa 0,0 l/m 4,3 km/h (1 Bft) NO 45 0 min 0,0 UV-I -9,0 C -10,7 C 4,3 km/h (1 Bft)
13.01.2010 05:55 -7,3 C 2,0 C -7,3 C -8,5 C -11,0 C 0,0 C 89 % 92 % 0 % 1011,0 hPa 0,0 l/m 5,0 km/h (1 Bft) NO 45 0 min 0,0 UV-I -8,8 C -14,1 C 6,8 km/h (2 Bft)
13.01.2010 06:00 -7,3 C 2,0 C -7,3 C -8,6 C -11,1 C 0,0 C 89 % 92 % 0 % 1011,0 hPa 0,0 l/m 5,1 km/h (1 Bft) NO 45 0 min 0,0 UV-I -8,8 C -14,2 C 5,5 km/h (1 Bft)
13.01.2010 06:05 -7,3 C 2,0 C -7,3 C -8,5 C -10,8 C 0,0 C 89 % 92 % 0 % 1011,0 hPa 0,0 l/m 5,0 km/h (1 Bft) NO 45 0 min 0,0 UV-I -8,8 C -13,8 C 4,2 km/h (1 Bft)
13.01.2010 06:10 -7,2 C 2,0 C -7,3 C -8,2 C -10,2 C 0,0 C 89 % 92 % 0 % 1011,0 hPa 0,0 l/m 4,0 km/h (1 Bft) NO 45 0 min 0,0 UV-I -8,7 C -10,2 C 3,7 km/h (1 Bft)
13.01.2010 06:15 -7,2 C 2,0 C -7,3 C -8,0 C -9,6 C 0,0 C 89 % 92 % 0 % 1011,5 hPa 0,0 l/m 3,4 km/h (1 Bft) NO 45 0 min 0,0 UV-I -8,7 C -9,6 C 4,3 km/h (1 Bft)
13.01.2010 06:20 -7,1 C 2,0 C -7,2 C -7,9 C -9,4 C 0,0 C 89 % 92 % 0 % 1011,5 hPa 0,0 l/m 3,1 km/h (1 Bft) NO 45 0 min 0,0 UV-I -8,6 C -9,4 C 3,1 km/h (1 Bft)
13.01.2010 06:25 -7,1 C 2,0 C -7,1 C -8,0 C -9,8 C 0,0 C 89 % 92 % 0 % 1011,5 hPa 0,0 l/m 3,5 km/h (1 Bft) NO 45 0 min 0,0 UV-I -8,6 C -9,8 C 3,7 km/h (1 Bft)
13.01.2010 06:30 -6,9 C 2,0 C -6,9 C -7,9 C -9,9 C 0,0 C 89 % 92 % 0 % 1011,5 hPa 0,0 l/m 3,9 km/h (1 Bft) NO 45 0 min 0,0 UV-I -8,4 C -9,9 C 4,3 km/h (1 Bft)
13.01.2010 06:35 -6,9 C 2,0 C -6,9 C -7,5 C -8,8 C 0,0 C 89 % 92 % 0 % 1011,5 hPa 0,0 l/m 2,7 km/h (1 Bft) NO 45 0 min 0,0 UV-I -8,4 C -8,8 C 0,0 km/h (0 Bft)
13.01.2010 06:40 -7,0 C 2,0 C -6,9 C -7,3 C -8,0 C 0,0 C 89 % 92 % 0 % 1011,5 hPa 0,0 l/m 1,6 km/h (1 Bft) NO 45 0 min 0,0 UV-I -8,5 C -8,0 C 0,0 km/h (0 Bft)
13.01.2010 06:45 -6,9 C 2,0 C -6,9 C -7,3 C -8,0 C 0,0 C 89 % 92 % 0 % 1011,5 hPa 0,0 l/m 1,3 km/h (1 Bft) NO 45 0 min 0,0 UV-I -8,4 C -8,0 C 2,1 km/h (1 Bft)
13.01.2010 06:50 -6,9 C 2,0 C -6,9 C -7,3 C -8,0 C 0,0 C 90 % 92 % 0 % 1011,5 hPa 0,0 l/m 1,9 km/h (1 Bft) NO 45 0 min 0,0 UV-I -8,3 C -8,0 C 2,3 km/h (1 Bft)
13.01.2010 06:55 -6,8 C 2,0 C -6,9 C -7,4 C -8,7 C 0,0 C 90 % 92 % 0 % 1011,4 hPa 0,0 l/m 2,6 km/h (1 Bft) NO 45 0 min 0,0 UV-I -8,2 C -8,7 C 2,9 km/h (1 Bft)
13.01.2010 07:00 -6,8 C 2,0 C -6,8 C -7,4 C -8,6 C 0,0 C 90 % 93 % 0 % 1011,4 hPa 0,0 l/m 2,6 km/h (1 Bft) NO 45 0 min 0,0 UV-I -8,2 C -8,6 C 2,1 km/h (1 Bft)
13.01.2010 07:05 -6,8 C 2,0 C -6,9 C -7,2 C -7,9 C 0,0 C 89 % 92 % 0 % 1011,4 hPa 0,0 l/m 1,8 km/h (1 Bft) NO 45 0 min 0,0 UV-I -8,3 C -7,9 C 3,5 km/h (1 Bft)
13.01.2010 07:10 -6,8 C 2,0 C -6,8 C -7,2 C -7,9 C 0,0 C 90 % 93 % 0 % 1011,4 hPa 0,0 l/m 1,6 km/h (1 Bft) NO 45 0 min 0,0 UV-I -8,2 C -7,9 C 2,7 km/h (1 Bft)
13.01.2010 07:15 -6,5 C 2,0 C -6,7 C -7,2 C -8,7 C 0,0 C 90 % 93 % 0 % 1011,4 hPa 0,0 l/m 2,7 km/h (1 Bft) NO 45 0 min 0,0 UV-I -7,9 C -8,7 C 3,9 km/h (1 Bft)
13.01.2010 07:20 -6,5 C 2,0 C -6,7 C -7,4 C -9,1 C 0,0 C 90 % 93 % 0 % 1011,4 hPa 0,0 l/m 3,2 km/h (1 Bft) NO 45 0 min 0,0 UV-I -7,9 C -9,1 C 3,4 km/h (1 Bft)
13.01.2010 07:25 -6,5 C 2,0 C -6,5 C -7,3 C -8,8 C 0,0 C 90 % 93 % 0 % 1011,4 hPa 0,0 l/m 2,9 km/h (1 Bft) NO 45 0 min 0,0 UV-I -7,9 C -8,8 C 2,9 km/h (1 Bft)
13.01.2010 07:30 -6,7 C 2,0 C -6,5 C -7,0 C -7,7 C 0,0 C 89 % 93 % 0 % 1011,4 hPa 0,0 l/m 1,9 km/h (1 Bft) NO 45 0 min 0,0 UV-I -8,2 C -7,7 C 0,0 km/h (0 Bft)
13.01.2010 07:35 -6,5 C 2,0 C -6,5 C -6,9 C -7,8 C 0,0 C 90 % 93 % 0 % 1011,2 hPa 0,0 l/m 1,4 km/h (1 Bft) NO 45 0 min 0,0 UV-I -7,9 C -7,8 C 2,1 km/h (1 Bft)
13.01.2010 07:40 -6,7 C 2,0 C -6,8 C -7,1 C -7,9 C 0,0 C 89 % 93 % 0 % 1011,2 hPa 0,0 l/m 1,6 km/h (1 Bft) NO 45 0 min 0,0 UV-I -8,2 C -7,9 C 2,7 km/h (1 Bft)
13.01.2010 07:45 -6,7 C 2,0 C -6,7 C -7,2 C -8,2 C 0,0 C 89 % 93 % 0 % 1011,2 hPa 0,0 l/m 2,3 km/h (1 Bft) NO 45 0 min 0,0 UV-I -8,2 C -8,2 C 2,3 km/h (1 Bft)
13.01.2010 07:50 -6,7 C 2,0 C -6,8 C -7,2 C -8,2 C 0,0 C 89 % 93 % 0 % 1011,2 hPa 0,0 l/m 2,3 km/h (1 Bft) NO 45 0 min 0,0 UV-I -8,2 C -8,2 C 3,1 km/h (1 Bft)
13.01.2010 07:55 -6,7 C 2,0 C -6,7 C -7,4 C -8,7 C 0,0 C 89 % 93 % 0 % 1011,6 hPa 0,0 l/m 2,6 km/h (1 Bft) NO 45 0 min 0,0 UV-I -8,2 C -8,7 C 3,1 km/h (1 Bft)
13.01.2010 08:00 -6,5 C 2,0 C -6,7 C -7,3 C -8,9 C 0,0 C 90 % 93 % 0 % 1011,6 hPa 0,0 l/m 2,9 km/h (1 Bft) NO 45 0 min 0,0 UV-I -7,9 C -8,9 C 3,4 km/h (1 Bft)
13.01.2010 08:10 -6,6 C 2,0 C -6,7 C -7,5 C -9,3 C 0,0 C 89 % 93 % 0 % 1011,6 hPa 0,0 l/m 3,7 km/h (1 Bft) NO 45 0 min 0,0 UV-I -8,1 C -9,3 C 4,3 km/h (1 Bft)
13.01.2010 08:15 -6,5 C 2,0 C -6,7 C -7,4 C -9,1 C 0,0 C 90 % 93 % 0 % 1011,6 hPa 0,0 l/m 3,4 km/h (1 Bft) NO 45 0 min 0,0 UV-I -7,9 C -9,1 C 2,3 km/h (1 Bft)
13.01.2010 08:20 -6,5 C 2,0 C -6,8 C -7,3 C -9,0 C 0,0 C 89 % 93 % 0 % 1011,6 hPa 0,0 l/m 3,1 km/h (1 Bft) NO 45 0 min 0,0 UV-I -8,0 C -9,0 C 3,2 km/h (1 Bft)
13.01.2010 08:25 -6,5 C 2,0 C -6,9 C -7,3 C -9,0 C 0,0 C 90 % 92 % 0 % 1011,6 hPa 0,0 l/m 3,1 km/h (1 Bft) NO 45 0 min 0,0 UV-I -7,9 C -9,0 C 3,7 km/h (1 Bft)
13.01.2010 08:30 -6,6 C 2,0 C -6,8 C -7,5 C -9,2 C 0,0 C 89 % 93 % 0 % 1011,6 hPa 0,0 l/m 3,4 km/h (1 Bft) NO 45 0 min 0,0 UV-I -8,1 C -9,2 C 4,2 km/h (1 Bft)
13.01.2010 08:35 -6,5 C 2,0 C -6,7 C -7,5 C -9,4 C 0,0 C 89 % 93 % 0 % 1011,8 hPa 0,0 l/m 3,9 km/h (1 Bft) NO 45 0 min 0,0 UV-I -8,0 C -9,4 C 4,2 km/h (1 Bft)
13.01.2010 08:40 -6,5 C 2,0 C -6,8 C -7,5 C -9,6 C 0,0 C 89 % 92 % 0 % 1011,8 hPa 0,0 l/m 4,0 km/h (1 Bft) NO 45 0 min 0,0 UV-I -8,0 C -9,6 C 4,0 km/h (1 Bft)
13.01.2010 08:45 -6,5 C 2,0 C -6,7 C -7,4 C -9,3 C 0,0 C 89 % 92 % 0 % 1011,8 hPa 0,0 l/m 3,9 km/h (1 Bft) NO 45 0 min 0,0 UV-I -8,0 C -9,3 C 7,6 km/h (2 Bft)
13.01.2010 08:50 -6,4 C 2,0 C -6,6 C -7,3 C -9,2 C 0,0 C 89 % 93 % 0 % 1011,8 hPa 0,0 l/m 3,9 km/h (1 Bft) NO 45 0 min 0,0 UV-I -7,9 C -9,2 C 4,2 km/h (1 Bft)
13.01.2010 08:55 -6,3 C 2,0 C -6,5 C -7,3 C -9,4 C 0,0 C 88 % 92 % 0 % 1011,3 hPa 0,0 l/m 4,3 km/h (1 Bft) NO 45 0 min 0,0 UV-I -8,0 C -9,4 C 4,0 km/h (1 Bft)
13.01.2010 09:00 -6,5 C 2,0 C -6,5 C -7,5 C -9,4 C 0,0 C 88 % 92 % 0 % 1011,3 hPa 0,0 l/m 4,3 km/h (1 Bft) NO 45 0 min 0,0 UV-I -8,1 C -9,4 C 4,0 km/h (1 Bft)
13.01.2010 09:05 -6,4 C 2,0 C -6,6 C -7,3 C -9,0 C 0,0 C 88 % 92 % 0 % 1011,3 hPa 0,0 l/m 3,9 km/h (1 Bft) NO 45 0 min 0,0 UV-I -8,1 C -9,0 C 4,5 km/h (1 Bft)
13.01.2010 09:10 -6,3 C 2,0 C -6,5 C -7,3 C -9,3 C 0,0 C 88 % 92 % 0 % 1011,3 hPa 0,0 l/m 4,2 km/h (1 Bft) NO 45 0 min 0,0 UV-I -8,0 C -9,3 C 8,4 km/h (2 Bft)
13.01.2010 09:15 -6,3 C 2,0 C -6,5 C -7,4 C -9,6 C 0,0 C 88 % 92 % 0 % 1011,3 hPa 0,0 l/m 4,8 km/h (1 Bft) NO 45 0 min 0,0 UV-I -8,0 C -12,4 C 5,0 km/h (1 Bft)
13.01.2010 09:20 -6,1 C 2,0 C -6,5 C -7,3 C -9,6 C 0,0 C 88 % 92 % 0 % 1011,3 hPa 0,0 l/m 5,1 km/h (1 Bft) NO 45 0 min 0,0 UV-I -7,8 C -12,5 C 4,7 km/h (1 Bft)
13.01.2010 09:25 -6,1 C 2,0 C -6,4 C -7,3 C -9,6 C 0,0 C 88 % 92 % 0 % 1011,3 hPa 0,0 l/m 5,5 km/h (1 Bft) NO 45 0 min 0,0 UV-I -7,8 C -12,8 C 8,2 km/h (2 Bft)
13.01.2010 09:30 -6,1 C 1,9 C -6,3 C -7,3 C -9,6 C 0,0 C 88 % 92 % 0 % 1011,3 hPa 0,0 l/m 5,6 km/h (1 Bft) NO 45 0 min 0,0 UV-I -7,8 C -12,8 C 5,8 km/h (2 Bft)
13.01.2010 09:35 -6,0 C 1,9 C -6,1 C -7,0 C -9,1 C 0,0 C 88 % 92 % 0 % 1011,4 hPa 0,0 l/m 5,5 km/h (1 Bft) NO 45 0 min 0,0 UV-I -7,7 C -12,2 C 4,3 km/h (1 Bft)
13.01.2010 09:40 -5,9 C 1,9 C -6,1 C -6,8 C -8,7 C 0,0 C 88 % 92 % 0 % 1011,4 hPa 0,0 l/m 5,0 km/h (1 Bft) NO 45 0 min 0,0 UV-I -7,6 C -11,5 C 5,0 km/h (1 Bft)
13.01.2010 09:45 -5,7 C 1,9 C -6,0 C -6,4 C -7,7 C 0,0 C 88 % 92 % 0 % 1011,4 hPa 0,0 l/m 3,7 km/h (1 Bft) NO 45 0 min 0,0 UV-I -7,4 C -7,7 C 4,3 km/h (1 Bft)
13.01.2010 09:50 -5,7 C 1,9 C -5,9 C -6,2 C -7,1 C 0,0 C 88 % 92 % 0 % 1011,4 hPa 0,0 l/m 3,2 km/h (1 Bft) NO 45 0 min 0,0 UV-I -7,4 C -7,1 C 2,6 km/h (1 Bft)
13.01.2010 09:55 -5,6 C 1,9 C -5,9 C -5,6 C -5,7 C 0,0 C 87 % 92 % 0 % 1011,2 hPa 0,0 l/m 1,9 km/h (1 Bft) NO 45 0 min 0,0 UV-I -7,4 C -5,7 C 2,3 km/h (1 Bft)
13.01.2010 10:00 -5,5 C 1,9 C -5,7 C -5,5 C -5,6 C 0,0 C 87 % 92 % 0 % 1011,2 hPa 0,0 l/m 1,6 km/h (1 Bft) NO 45 0 min 0,0 UV-I -7,3 C -5,6 C 2,7 km/h (1 Bft)
13.01.2010 10:05 -5,3 C 1,9 C -5,7 C -5,5 C -6,0 C 0,0 C 87 % 92 % 0 % 1011,2 hPa 0,0 l/m 2,6 km/h (1 Bft) NO 45 0 min 0,0 UV-I -7,1 C -6,0 C 4,0 km/h (1 Bft)
13.01.2010 10:10 -5,3 C 1,9 C -5,7 C -5,7 C -6,5 C 0,0 C 87 % 92 % 0 % 1011,2 hPa 0,0 l/m 3,2 km/h (1 Bft) NO 45 0 min 0,0 UV-I -7,1 C -6,5 C 2,9 km/h (1 Bft)
13.01.2010 10:15 -5,3 C 1,9 C -5,7 C -5,8 C -6,9 C 0,0 C 87 % 92 % 0 % 1011,2 hPa 0,0 l/m 3,5 km/h (1 Bft) NO 45 0 min 0,0 UV-I -7,1 C -6,9 C 5,1 km/h (1 Bft)
13.01.2010 10:20 -5,3 C 1,9 C -5,7 C -5,8 C -6,9 C 0,0 C 87 % 92 % 0 % 1011,2 hPa 0,0 l/m 3,5 km/h (1 Bft) NO 45 0 min 0,0 UV-I -7,1 C -6,9 C 3,4 km/h (1 Bft)
13.01.2010 10:25 -5,1 C 1,9 C -5,5 C -5,8 C -7,2 C 0,0 C 87 % 92 % 0 % 1011,2 hPa 0,0 l/m 4,2 km/h (1 Bft) NO 45 0 min 0,0 UV-I -6,9 C -7,2 C 7,7 km/h (2 Bft)
13.01.2010 10:30 -5,0 C 1,9 C -5,3 C -5,7 C -7,2 C 0,0 C 87 % 92 % 0 % 1011,2 hPa 0,0 l/m 4,5 km/h (1 Bft) NO 45 0 min 0,0 UV-I -6,8 C -7,2 C 6,9 km/h (2 Bft)
13.01.2010 10:35 -4,9 C 1,9 C -5,3 C -5,7 C -7,3 C 0,0 C 87 % 92 % 0 % 1011,2 hPa 0,0 l/m 5,0 km/h (1 Bft) NO 45 0 min 0,0 UV-I -6,7 C -9,9 C 3,9 km/h (1 Bft)
13.01.2010 10:40 -4,8 C 1,9 C -5,2 C -5,6 C -7,1 C 0,0 C 87 % 92 % 0 % 1011,2 hPa 0,0 l/m 5,0 km/h (1 Bft) NO 45 0 min 0,0 UV-I -6,6 C -9,6 C 6,3 km/h (2 Bft)
13.01.2010 10:45 -4,7 C 1,9 C -5,2 C -5,5 C -7,2 C 0,0 C 87 % 92 % 0 % 1011,2 hPa 0,0 l/m 5,3 km/h (1 Bft) NO 45 0 min 0,0 UV-I -6,5 C -9,9 C 6,6 km/h (2 Bft)
13.01.2010 10:50 -4,5 C 1,9 C -5,1 C -5,4 C -7,3 C 0,0 C 87 % 91 % 0 % 1011,2 hPa 0,0 l/m 5,6 km/h (1 Bft) NO 45 0 min 0,0 UV-I -6,3 C -10,2 C 7,6 km/h (2 Bft)
13.01.2010 10:55 -4,7 C 1,9 C -4,9 C -5,8 C -8,0 C 0,0 C 87 % 91 % 0 % 1011,2 hPa 0,0 l/m 6,8 km/h (2 Bft) NO 45 0 min 0,0 UV-I -6,5 C -11,6 C 10,0 km/h (2 Bft)
13.01.2010 11:00 -4,5 C 1,9 C -5,1 C -5,4 C -8,4 C 0,0 C 87 % 91 % 0 % 1011,2 hPa 0,0 l/m 7,7 km/h (2 Bft) NO 45 0 min 0,0 UV-I -6,3 C -12,5 C 10,0 km/h (2 Bft)
13.01.2010 11:05 -4,5 C 1,9 C -4,9 C -5,4 C -8,3 C 0,0 C 87 % 91 % 0 % 1011,2 hPa 0,0 l/m 7,9 km/h (2 Bft) NO 45 0 min 0,0 UV-I -6,3 C -12,4 C 10,1 km/h (2 Bft)
13.01.2010 11:10 -4,4 C 1,9 C -4,8 C -5,7 C -8,2 C 0,0 C 87 % 91 % 0 % 1011,2 hPa 0,0 l/m 7,6 km/h (2 Bft) NO 45 0 min 0,0 UV-I -6,2 C -12,2 C 8,0 km/h (2 Bft)
13.01.2010 11:15 -4,3 C 1,9 C -4,7 C -5,4 C -7,5 C 0,0 C 87 % 91 % 0 % 1011,2 hPa 0,0 l/m 6,6 km/h (2 Bft) NO 45 0 min 0,0 UV-I -6,1 C -10,9 C 4,8 km/h (1 Bft)
13.01.2010 11:20 -4,2 C 1,9 C -4,5 C -5,0 C -6,7 C 0,0 C 86 % 91 % 0 % 1011,2 hPa 0,0 l/m 5,3 km/h (1 Bft) NO 45 0 min 0,0 UV-I -6,2 C -9,4 C 6,4 km/h (2 Bft)
13.01.2010 11:25 -4,0 C 1,8 C -4,3 C -4,7 C -6,0 C 0,0 C 86 % 91 % 0 % 1011,2 hPa 0,0 l/m 4,5 km/h (1 Bft) NO 45 0 min 0,0 UV-I -6,0 C -6,0 C 6,1 km/h (2 Bft)
13.01.2010 11:30 -4,0 C 1,9 C -4,4 C -4,4 C -5,3 C 0,0 C 86 % 91 % 0 % 1011,2 hPa 0,0 l/m 4,0 km/h (1 Bft) NO 45 0 min 0,0 UV-I -6,0 C -5,3 C 5,3 km/h (1 Bft)
13.01.2010 11:35 -3,7 C 1,9 C -4,3 C -4,3 C -5,4 C 0,0 C 86 % 91 % 0 % 1011,2 hPa 0,0 l/m 4,3 km/h (1 Bft) NO 45 0 min 0,0 UV-I -5,7 C -5,4 C 3,9 km/h (1 Bft)
13.01.2010 11:40 -3,7 C 1,9 C -4,1 C -4,2 C -5,1 C 0,0 C 86 % 90 % 0 % 1011,2 hPa 0,0 l/m 4,2 km/h (1 Bft) NO 45 0 min 0,0 UV-I -5,7 C -5,1 C 5,8 km/h (2 Bft)
13.01.2010 11:45 -3,6 C 1,9 C -4,0 C -4,1 C -5,0 C 0,0 C 86 % 90 % 0 % 1011,2 hPa 0,0 l/m 4,2 km/h (1 Bft) NO 45 0 min 0,0 UV-I -5,6 C -5,0 C 3,7 km/h (1 Bft)
13.01.2010 11:50 -3,6 C 1,9 C -3,9 C -4,1 C -5,2 C 0,0 C 85 % 90 % 0 % 1011,2 hPa 0,0 l/m 4,8 km/h (1 Bft) NO 45 0 min 0,0 UV-I -5,7 C -7,4 C 5,8 km/h (2 Bft)
13.01.2010 11:55 -3,5 C 1,8 C -3,9 C -4,0 C -5,1 C 0,0 C 85 % 90 % 0 % 1011,1 hPa 0,0 l/m 4,7 km/h (1 Bft) NO 45 0 min 0,0 UV-I -5,6 C -7,2 C 4,5 km/h (1 Bft)
13.01.2010 12:00 -3,3 C 1,8 C -3,7 C -4,0 C -5,4 C 0,0 C 85 % 90 % 0 % 1011,1 hPa 0,0 l/m 5,3 km/h (1 Bft) NO 45 0 min 0,0 UV-I -5,5 C -7,9 C 4,2 km/h (1 Bft)
13.01.2010 12:10 -3,1 C 1,8 C -3,6 C -3,6 C -4,6 C 0,0 C 84 % 89 % 0 % 1011,1 hPa 0,0 l/m 4,7 km/h (1 Bft) NO 45 0 min 0,0 UV-I -5,4 C -6,6 C 4,5 km/h (1 Bft)
13.01.2010 12:15 -2,8 C 1,7 C -3,5 C -3,1 C -3,6 C 0,0 C 84 % 89 % 0 % 1011,1 hPa 0,0 l/m 4,0 km/h (1 Bft) NO 45 0 min 0,0 UV-I -5,1 C -3,6 C 4,7 km/h (1 Bft)
13.01.2010 12:20 -2,5 C 1,7 C -3,3 C -2,7 C -3,1 C 0,0 C 84 % 89 % 0 % 1011,1 hPa 0,0 l/m 4,0 km/h (1 Bft) NO 45 0 min 0,0 UV-I -4,8 C -3,1 C 5,1 km/h (1 Bft)
13.01.2010 12:25 -2,7 C 1,7 C -3,3 C -2,9 C -3,2 C 0,0 C 83 % 88 % 0 % 1011,1 hPa 0,0 l/m 4,5 km/h (1 Bft) NO 45 0 min 0,0 UV-I -5,2 C -3,2 C 8,2 km/h (2 Bft)
13.01.2010 12:30 -2,8 C 1,7 C -3,1 C -3,1 C -3,8 C 0,0 C 83 % 88 % 0 % 1011,1 hPa 0,0 l/m 5,6 km/h (1 Bft) NO 45 0 min 0,0 UV-I -5,3 C -6,2 C 7,4 km/h (2 Bft)
13.01.2010 12:35 -2,7 C 1,7 C -3,2 C -3,0 C -5,2 C 0,0 C 83 % 88 % 0 % 1011,1 hPa 0,0 l/m 7,7 km/h (2 Bft) NO 45 0 min 0,0 UV-I -5,2 C -8,7 C 10,0 km/h (2 Bft)
13.01.2010 12:40 -2,8 C 1,7 C -3,2 C -3,3 C -5,5 C 0,0 C 83 % 88 % 0 % 1011,1 hPa 0,0 l/m 8,2 km/h (2 Bft) NO 45 0 min 0,0 UV-I -5,3 C -9,3 C 11,1 km/h (2 Bft)
13.01.2010 12:45 -2,7 C 1,7 C -3,1 C -3,6 C -5,3 C 0,0 C 83 % 88 % 0 % 1011,1 hPa 0,0 l/m 7,4 km/h (2 Bft) NO 45 0 min 0,0 UV-I -5,2 C -8,7 C 6,1 km/h (2 Bft)
13.01.2010 12:50 -2,7 C 1,7 C -3,1 C -3,6 C -5,4 C 0,0 C 83 % 88 % 0 % 1011,1 hPa 0,0 l/m 7,1 km/h (2 Bft) NO 45 0 min 0,0 UV-I -5,2 C -8,7 C 9,3 km/h (2 Bft)
13.01.2010 12:55 -2,7 C 1,7 C -2,9 C -3,6 C -5,4 C 0,0 C 83 % 88 % 0 % 1010,9 hPa 0,0 l/m 7,1 km/h (2 Bft) NO 45 0 min 0,0 UV-I -5,2 C -8,7 C 7,7 km/h (2 Bft)
13.01.2010 13:00 -2,7 C 1,7 C -3,0 C -3,7 C -5,6 C 0,0 C 83 % 88 % 0 % 1010,9 hPa 0,0 l/m 7,6 km/h (2 Bft) NO 45 0 min 0,0 UV-I -5,2 C -9,2 C 10,0 km/h (2 Bft)
13.01.2010 13:10 -2,5 C 1,7 C -2,9 C -3,4 C -5,3 C 0,0 C 83 % 87 % 0 % 1010,9 hPa 0,0 l/m 7,2 km/h (2 Bft) NO 45 0 min 0,0 UV-I -5,0 C -8,6 C 9,2 km/h (2 Bft)
13.01.2010 13:15 -2,5 C 1,7 C -2,9 C -3,1 C -5,2 C 0,0 C 82 % 87 % 0 % 1010,6 hPa 0,0 l/m 8,0 km/h (2 Bft) NO 45 0 min 0,0 UV-I -5,1 C -8,8 C 12,4 km/h (3 Bft)
13.01.2010 13:20 -2,4 C 1,7 C -2,9 C -3,0 C -5,4 C 0,0 C 82 % 87 % 0 % 1010,6 hPa 0,0 l/m 8,5 km/h (2 Bft) NO 45 0 min 0,0 UV-I -5,0 C -9,3 C 11,3 km/h (2 Bft)
13.01.2010 13:25 -2,3 C 1,7 C -2,8 C -2,9 C -4,9 C 0,0 C 83 % 87 % 0 % 1010,6 hPa 0,0 l/m 7,7 km/h (2 Bft) NO 45 0 min 0,0 UV-I -4,8 C -8,4 C 7,7 km/h (2 Bft)
13.01.2010 13:30 -2,3 C 1,7 C -2,8 C -3,0 C -4,4 C 0,0 C 83 % 87 % 0 % 1010,6 hPa 0,0 l/m 6,9 km/h (2 Bft) NO 45 0 min 0,0 UV-I -4,8 C -7,5 C 6,9 km/h (2 Bft)
13.01.2010 13:35 -2,1 C 1,7 C -2,7 C -2,6 C -3,5 C 0,0 C 83 % 87 % 0 % 1010,6 hPa 0,0 l/m 5,5 km/h (1 Bft) NO 45 0 min 0,0 UV-I -4,6 C -5,8 C 5,5 km/h (1 Bft)
13.01.2010 13:40 -2,1 C 1,7 C -2,7 C -2,5 C -3,4 C 0,0 C 83 % 87 % 0 % 1010,6 hPa 0,0 l/m 5,3 km/h (1 Bft) NO 45 0 min 0,0 UV-I -4,6 C -5,6 C 11,9 km/h (2 Bft)
13.01.2010 13:45 -2,1 C 1,7 C -2,5 C -2,8 C -4,1 C 0,0 C 83 % 87 % 0 % 1010,6 hPa 0,0 l/m 6,4 km/h (2 Bft) NO 45 0 min 0,0 UV-I -4,6 C -6,9 C 5,1 km/h (1 Bft)
13.01.2010 13:50 -2,0 C 1,7 C -2,5 C -2,8 C -4,3 C 0,0 C 83 % 88 % 0 % 1010,6 hPa 0,0 l/m 6,9 km/h (2 Bft) NO 45 0 min 0,0 UV-I -4,5 C -7,4 C 7,1 km/h (2 Bft)
13.01.2010 13:55 -1,9 C 1,7 C -2,5 C -2,6 C -3,9 C 0,0 C 83 % 87 % 0 % 1010,6 hPa 0,0 l/m 6,4 km/h (2 Bft) NO 45 0 min 0,0 UV-I -4,4 C -6,7 C 8,0 km/h (2 Bft)
13.01.2010 14:00 -1,7 C 1,7 C -2,4 C -2,4 C -3,9 C 0,0 C 83 % 87 % 0 % 1010,6 hPa 0,0 l/m 6,8 km/h (2 Bft) NO 45 0 min 0,0 UV-I -4,2 C -6,9 C 6,4 km/h (2 Bft)
13.01.2010 14:10 -1,8 C 1,7 C -2,3 C -2,5 C -3,8 C 0,0 C 82 % 87 % 0 % 1010,6 hPa 0,0 l/m 6,9 km/h (2 Bft) NO 45 0 min 0,0 UV-I -4,5 C -6,8 C 11,1 km/h (2 Bft)
13.01.2010 14:15 -1,7 C 1,7 C -2,1 C -2,4 C -3,9 C 0,0 C 82 % 87 % 0 % 1010,6 hPa 0,0 l/m 7,2 km/h (2 Bft) NO 45 0 min 0,0 UV-I -4,4 C -7,0 C 6,8 km/h (2 Bft)
13.01.2010 14:20 -1,9 C 1,7 C -2,3 C -2,4 C -4,6 C 0,0 C 83 % 87 % 0 % 1010,6 hPa 0,0 l/m 8,2 km/h (2 Bft) NO 45 0 min 0,0 UV-I -4,4 C -8,2 C 10,5 km/h (2 Bft)
13.01.2010 14:25 -1,9 C 1,7 C -2,4 C -2,5 C -4,8 C 0,0 C 83 % 87 % 0 % 1010,6 hPa 0,0 l/m 8,0 km/h (2 Bft) NO 45 0 min 0,0 UV-I -4,4 C -8,4 C 9,7 km/h (2 Bft)
13.01.2010 14:30 -1,9 C 1,7 C -2,4 C -2,6 C -5,0 C 0,0 C 83 % 87 % 0 % 1010,6 hPa 0,0 l/m 8,2 km/h (2 Bft) NO 45 0 min 0,0 UV-I -4,4 C -8,7 C 10,1 km/h (2 Bft)
13.01.2010 14:35 -1,9 C 1,7 C -2,4 C -2,6 C -5,1 C 0,0 C 83 % 87 % 0 % 1010,6 hPa 0,0 l/m 8,5 km/h (2 Bft) NO 45 0 min 0,0 UV-I -4,4 C -8,9 C 13,2 km/h (3 Bft)
13.01.2010 14:40 -1,9 C 1,7 C -2,3 C -3,0 C -5,1 C 0,0 C 83 % 87 % 0 % 1010,6 hPa 0,0 l/m 9,0 km/h (2 Bft) NO 45 0 min 0,0 UV-I -4,4 C -9,1 C 8,5 km/h (2 Bft)
13.01.2010 14:45 -1,9 C 1,7 C -2,1 C -2,6 C -4,9 C 0,0 C 83 % 87 % 0 % 1010,6 hPa 0,0 l/m 8,5 km/h (2 Bft) NO 45 0 min 0,0 UV-I -4,4 C -8,7 C 8,7 km/h (2 Bft)
13.01.2010 14:50 -1,7 C 1,7 C -2,2 C -2,4 C -4,8 C 0,0 C 83 % 87 % 0 % 1010,6 hPa 0,0 l/m 7,9 km/h (2 Bft) NO 45 0 min 0,0 UV-I -4,2 C -8,3 C 9,5 km/h (2 Bft)
13.01.2010 14:55 -1,7 C 1,7 C -2,1 C -2,6 C -4,4 C 0,0 C 83 % 87 % 0 % 1010,5 hPa 0,0 l/m 7,1 km/h (2 Bft) NO 45 0 min 0,0 UV-I -4,2 C -7,6 C 4,8 km/h (1 Bft)
13.01.2010 15:00 -1,7 C 1,7 C -2,1 C -2,7 C -4,7 C 0,0 C 83 % 87 % 0 % 1010,5 hPa 0,0 l/m 7,4 km/h (2 Bft) NO 45 0 min 0,0 UV-I -4,2 C -8,0 C 9,8 km/h (2 Bft)
13.01.2010 15:10 -1,7 C 1,7 C -2,0 C -2,4 C -5,0 C 0,0 C 83 % 87 % 0 % 1010,5 hPa 0,0 l/m 8,9 km/h (2 Bft) NO 45 0 min 0,0 UV-I -4,2 C -8,9 C 11,7 km/h (2 Bft)
13.01.2010 15:15 -1,7 C 1,7 C -2,0 C -2,4 C -5,1 C 0,0 C 83 % 87 % 0 % 1010,5 hPa 0,0 l/m 9,2 km/h (2 Bft) NO 45 0 min 0,0 UV-I -4,2 C -9,2 C 12,4 km/h (3 Bft)
13.01.2010 15:20 -1,7 C 1,7 C -2,0 C -2,5 C -5,2 C 0,0 C 83 % 87 % 0 % 1010,5 hPa 0,0 l/m 9,5 km/h (2 Bft) NO 45 0 min 0,0 UV-I -4,2 C -9,4 C 11,6 km/h (2 Bft)
13.01.2010 15:25 -1,7 C 1,7 C -1,9 C -2,5 C -5,6 C 0,0 C 83 % 87 % 0 % 1010,5 hPa 0,0 l/m 10,8 km/h (2 Bft) NO 45 0 min 0,0 UV-I -4,2 C -10,2 C 19,6 km/h (3 Bft)
13.01.2010 15:30 -1,7 C 1,7 C -2,0 C -3,0 C -5,6 C 0,0 C 83 % 87 % 0 % 1010,5 hPa 0,0 l/m 11,1 km/h (2 Bft) NO 45 0 min 0,0 UV-I -4,2 C -10,3 C 12,4 km/h (3 Bft)
13.01.2010 15:35 -1,6 C 1,7 C -1,9 C -2,5 C -5,4 C 0,0 C 83 % 87 % 0 % 1010,9 hPa 0,0 l/m 10,5 km/h (2 Bft) NO 45 0 min 0,0 UV-I -4,1 C -9,9 C 12,7 km/h (3 Bft)
13.01.2010 15:40 -1,6 C 1,7 C -1,9 C -2,4 C -5,0 C 0,0 C 83 % 87 % 0 % 1010,9 hPa 0,0 l/m 9,7 km/h (2 Bft) NO 45 0 min 0,0 UV-I -4,1 C -9,2 C 9,3 km/h (2 Bft)
13.01.2010 15:45 -1,6 C 1,7 C -1,7 C -2,3 C -4,7 C 0,0 C 83 % 87 % 0 % 1010,9 hPa 0,0 l/m 8,7 km/h (2 Bft) NO 45 0 min 0,0 UV-I -4,1 C -8,5 C 13,2 km/h (3 Bft)
13.01.2010 15:47 -1,5 C 1,7 C -1,7 C -1,7 C -4,6 C 0,0 C 83 % 87 % 0 % 1010,9 hPa 0,0 l/m 7,9 km/h (2 Bft) NO 45 0 min 0,0 UV-I -4,0 C -8,1 C 9,5 km/h (2 Bft)
13.01.2010 15:52 -1,7 C 1,7 C -1,7 C -2,4 C -5,1 C 0,0 C 83 % 87 % 0 % 1010,9 hPa 0,0 l/m 9,0 km/h (2 Bft) NO 45 0 min 0,0 UV-I -4,2 C -9,1 C 12,6 km/h (3 Bft)
13.01.2010 15:59 -1,7 C 1,7 C -1,9 C -2,4 C -4,9 C 0,0 C 83 % 87 % 0 % 1010,9 hPa 0,0 l/m 8,7 km/h (2 Bft) NO 45 0 min 0,0 UV-I -4,2 C -8,7 C 9,0 km/h (2 Bft)
13.01.2010 16:05 -1,7 C 1,7 C -1,9 C -2,8 C -4,9 C 0,0 C 83 % 87 % 0 % 1010,9 hPa 0,0 l/m 8,2 km/h (2 Bft) NO 45 0 min 0,0 UV-I -4,2 C -8,6 C 11,1 km/h (2 Bft)
13.01.2010 16:10 -1,8 C 1,9 C -1,9 C -2,5 C -4,8 C 0,0 C 84 % 87 % 0 % 1010,9 hPa 0,0 l/m 8,0 km/h (2 Bft) NO 45 0 min 0,0 UV-I -4,1 C -8,4 C 9,2 km/h (2 Bft)
13.01.2010 16:15 -1,7 C 1,9 C -2,1 C -2,6 C -4,4 C 0,0 C 84 % 87 % 0 % 1010,9 hPa 0,0 l/m 6,9 km/h (2 Bft) NO 45 0 min 0,0 UV-I -4,0 C -7,5 C 6,0 km/h (2 Bft)
13.01.2010 16:20 -1,7 C 1,7 C -2,0 C -2,6 C -4,3 C 0,0 C 84 % 88 % 0 % 1010,9 hPa 0,0 l/m 6,1 km/h (2 Bft) NO 45 0 min 0,0 UV-I -4,0 C -7,0 C 7,7 km/h (2 Bft)
13.01.2010 16:25 -1,9 C 1,9 C -1,9 C -2,6 C -3,9 C 0,0 C 84 % 88 % 0 % 1010,9 hPa 0,0 l/m 5,5 km/h (1 Bft) NO 45 0 min 0,0 UV-I -4,2 C -6,3 C 5,8 km/h (2 Bft)
13.01.2010 16:30 -1,9 C 1,9 C -2,0 C -2,6 C -3,9 C 0,0 C 84 % 88 % 0 % 1010,9 hPa 0,0 l/m 5,3 km/h (1 Bft) NO 45 0 min 0,0 UV-I -4,2 C -6,2 C 8,7 km/h (2 Bft)
13.01.2010 16:35 -1,7 C 1,9 C -2,0 C -2,5 C -4,1 C 0,0 C 84 % 88 % 0 % 1010,9 hPa 0,0 l/m 5,6 km/h (1 Bft) NO 45 0 min 0,0 UV-I -4,0 C -6,5 C 6,4 km/h (2 Bft)
13.01.2010 16:40 -1,9 C 1,7 C -2,0 C -2,7 C -4,2 C 0,0 C 84 % 88 % 0 % 1010,9 hPa 0,0 l/m 6,0 km/h (2 Bft) NO 45 0 min 0,0 UV-I -4,2 C -6,9 C 8,5 km/h (2 Bft)
13.01.2010 16:45 -1,7 C 1,9 C -2,0 C -2,5 C -4,2 C 0,0 C 84 % 88 % 0 % 1010,9 hPa 0,0 l/m 6,0 km/h (2 Bft) NO 45 0 min 0,0 UV-I -4,0 C -6,9 C 6,9 km/h (2 Bft)
13.01.2010 16:50 -1,9 C 1,9 C -1,9 C -2,7 C -4,4 C 0,0 C 84 % 88 % 0 % 1010,9 hPa 0,0 l/m 6,6 km/h (2 Bft) NO 45 0 min 0,0 UV-I -4,2 C -7,4 C 7,6 km/h (2 Bft)
13.01.2010 16:55 -1,9 C 1,9 C -2,0 C -2,8 C -4,6 C 0,0 C 84 % 88 % 0 % 1011,1 hPa 0,0 l/m 6,8 km/h (2 Bft) NO 45 0 min 0,0 UV-I -4,2 C -7,7 C 7,7 km/h (2 Bft)
13.01.2010 17:00 -1,9 C 1,9 C -2,0 C -2,7 C -4,2 C 0,0 C 85 % 88 % 0 % 1011,1 hPa 0,0 l/m 6,0 km/h (2 Bft) NO 45 0 min 0,0 UV-I -4,1 C -6,9 C 4,0 km/h (1 Bft)
13.01.2010 17:10 -1,9 C 1,9 C -2,0 C -2,6 C -4,1 C 0,0 C 85 % 89 % 0 % 1011,1 hPa 0,0 l/m 5,6 km/h (1 Bft) NO 45 0 min 0,0 UV-I -4,1 C -6,5 C 6,4 km/h (2 Bft)
13.01.2010 17:15 -1,9 C 1,9 C -2,0 C -2,6 C -3,9 C 0,0 C 85 % 89 % 0 % 1011,1 hPa 0,0 l/m 5,5 km/h (1 Bft) NO 45 0 min 0,0 UV-I -4,1 C -6,3 C 6,4 km/h (2 Bft)
13.01.2010 17:20 -1,9 C 1,9 C -2,0 C -2,5 C -3,8 C 0,0 C 85 % 89 % 0 % 1011,1 hPa 0,0 l/m 5,1 km/h (1 Bft) NO 45 0 min 0,0 UV-I -4,1 C -6,0 C 4,5 km/h (1 Bft)
13.01.2010 17:25 -1,9 C 1,9 C -2,0 C -2,6 C -4,0 C 0,0 C 85 % 89 % 0 % 1011,1 hPa 0,0 l/m 5,3 km/h (1 Bft) NO 45 0 min 0,0 UV-I -4,1 C -6,3 C 4,7 km/h (1 Bft)
13.01.2010 17:30 -1,9 C 1,9 C -2,0 C -2,5 C -3,7 C 0,0 C 85 % 89 % 0 % 1011,1 hPa 0,0 l/m 4,7 km/h (1 Bft) NO 45 0 min 0,0 UV-I -4,1 C -5,6 C 4,2 km/h (1 Bft)
13.01.2010 17:35 -1,9 C 1,9 C -2,0 C -2,5 C -3,6 C 0,0 C 85 % 89 % 0 % 1011,1 hPa 0,0 l/m 4,5 km/h (1 Bft) NO 45 0 min 0,0 UV-I -4,1 C -3,6 C 4,7 km/h (1 Bft)
13.01.2010 17:40 -2,0 C 1,9 C -2,0 C -2,6 C -3,8 C 0,0 C 85 % 89 % 0 % 1011,1 hPa 0,0 l/m 4,7 km/h (1 Bft) NO 45 0 min 0,0 UV-I -4,2 C -5,7 C 6,0 km/h (2 Bft)
13.01.2010 17:45 -2,0 C 2,0 C -1,9 C -2,8 C -4,5 C 0,0 C 85 % 89 % 0 % 1011,1 hPa 0,0 l/m 6,1 km/h (2 Bft) NO 45 0 min 0,0 UV-I -4,2 C -7,2 C 6,8 km/h (2 Bft)
13.01.2010 17:50 -2,0 C 2,0 C -2,1 C -2,9 C -4,8 C 0,0 C 86 % 89 % 0 % 1011,1 hPa 0,0 l/m 6,9 km/h (2 Bft) NO 45 0 min 0,0 UV-I -4,0 C -7,9 C 10,0 km/h (2 Bft)
13.01.2010 17:55 -1,9 C 2,0 C -2,1 C -2,9 C -4,8 C 0,0 C 86 % 89 % 0 % 1011,1 hPa 0,0 l/m 6,8 km/h (2 Bft) NO 45 0 min 0,0 UV-I -3,9 C -7,9 C 10,3 km/h (2 Bft)
13.01.2010 18:00 -1,9 C 2,0 C -2,1 C -2,8 C -4,7 C 0,0 C 86 % 89 % 0 % 1011,1 hPa 0,0 l/m 6,6 km/h (2 Bft) NO 45 0 min 0,0 UV-I -3,9 C -7,7 C 6,8 km/h (2 Bft)
13.01.2010 18:10 -2,0 C 2,0 C -2,1 C -2,8 C -4,4 C 0,0 C 86 % 90 % 0 % 1011,1 hPa 0,0 l/m 5,8 km/h (2 Bft) NO 45 0 min 0,0 UV-I -4,0 C -7,0 C 6,4 km/h (2 Bft)
13.01.2010 18:15 -1,9 C 2,0 C -2,0 C -2,7 C -4,4 C 0,0 C 86 % 90 % 0 % 1011,1 hPa 0,0 l/m 6,0 km/h (2 Bft) NO 45 0 min 0,0 UV-I -3,9 C -7,1 C 6,4 km/h (2 Bft)
13.01.2010 18:20 -2,0 C 2,0 C -1,9 C -2,8 C -4,4 C 0,0 C 86 % 90 % 0 % 1011,1 hPa 0,0 l/m 5,8 km/h (2 Bft) NO 45 0 min 0,0 UV-I -4,0 C -7,0 C 5,8 km/h (2 Bft)
13.01.2010 18:25 -2,0 C 2,0 C -2,0 C -2,7 C -4,2 C 0,0 C 86 % 89 % 0 % 1011,1 hPa 0,0 l/m 5,5 km/h (1 Bft) NO 45 0 min 0,0 UV-I -4,0 C -6,6 C 4,3 km/h (1 Bft)
13.01.2010 18:30 -2,0 C 2,0 C -2,0 C -2,6 C -3,9 C 0,0 C 86 % 89 % 0 % 1011,1 hPa 0,0 l/m 4,8 km/h (1 Bft) NO 45 0 min 0,0 UV-I -4,0 C -5,9 C 5,1 km/h (1 Bft)
13.01.2010 18:35 -2,0 C 2,0 C -2,0 C -2,3 C -2,9 C 0,0 C 86 % 89 % 0 % 1011,4 hPa 0,0 l/m 3,2 km/h (1 Bft) NO 45 0 min 0,0 UV-I -4,0 C -2,9 C 1,8 km/h (1 Bft)
13.01.2010 18:40 -2,0 C 2,0 C -1,9 C -2,2 C -2,7 C 0,0 C 86 % 89 % 0 % 1011,4 hPa 0,0 l/m 2,9 km/h (1 Bft) NO 45 0 min 0,0 UV-I -4,0 C -2,7 C 2,9 km/h (1 Bft)
13.01.2010 18:45 -1,9 C 2,0 C -1,9 C -2,3 C -3,0 C 0,0 C 86 % 90 % 0 % 1011,4 hPa 0,0 l/m 3,4 km/h (1 Bft) NO 45 0 min 0,0 UV-I -3,9 C -3,0 C 5,6 km/h (1 Bft)
13.01.2010 18:50 -1,9 C 2,0 C -2,0 C -2,5 C -3,6 C 0,0 C 86 % 90 % 0 % 1011,4 hPa 0,0 l/m 4,2 km/h (1 Bft) NO 45 0 min 0,0 UV-I -3,9 C -3,6 C 7,1 km/h (2 Bft)
13.01.2010 18:55 -1,7 C 1,9 C -1,9 C -2,6 C -4,3 C 0,0 C 86 % 90 % 0 % 1011,4 hPa 0,0 l/m 6,4 km/h (2 Bft) NO 45 0 min 0,0 UV-I -3,7 C -7,1 C 10,1 km/h (2 Bft)
13.01.2010 19:00 -1,7 C 1,9 C -1,7 C -2,7 C -4,6 C 0,0 C 86 % 90 % 0 % 1011,4 hPa 0,0 l/m 7,6 km/h (2 Bft) NO 45 0 min 0,0 UV-I -3,7 C -8,0 C 10,0 km/h (2 Bft)
13.01.2010 19:10 -1,7 C 1,9 C -1,6 C -2,3 C -4,4 C 0,0 C 85 % 89 % 0 % 1011,4 hPa 0,0 l/m 7,9 km/h (2 Bft) NO 45 0 min 0,0 UV-I -3,9 C -7,9 C 8,7 km/h (2 Bft)
13.01.2010 19:15 -1,5 C 1,9 C -1,6 C -2,3 C -3,9 C 0,0 C 86 % 89 % 0 % 1011,1 hPa 0,0 l/m 6,8 km/h (2 Bft) NO 45 0 min 0,0 UV-I -3,5 C -6,9 C 6,3 km/h (2 Bft)
13.01.2010 19:20 -1,6 C 1,9 C -1,6 C -2,2 C -3,5 C 0,0 C 85 % 89 % 0 % 1011,1 hPa 0,0 l/m 5,6 km/h (1 Bft) NO 45 0 min 0,0 UV-I -3,8 C -5,9 C 6,6 km/h (2 Bft)
13.01.2010 19:25 -1,5 C 1,9 C -1,5 C -2,2 C -3,6 C 0,0 C 85 % 89 % 0 % 1011,1 hPa 0,0 l/m 6,3 km/h (2 Bft) NO 45 0 min 0,0 UV-I -3,7 C -6,3 C 8,0 km/h (2 Bft)
13.01.2010 19:30 -1,5 C 1,9 C -1,5 C -2,2 C -3,6 C 0,0 C 85 % 89 % 0 % 1011,1 hPa 0,0 l/m 6,1 km/h (2 Bft) NO 45 0 min 0,0 UV-I -3,7 C -6,2 C 4,7 km/h (1 Bft)
13.01.2010 19:35 -1,5 C 1,9 C -1,5 C -2,0 C -3,1 C 0,0 C 85 % 89 % 0 % 1011,1 hPa 0,0 l/m 5,1 km/h (1 Bft) NO 45 0 min 0,0 UV-I -3,7 C -5,2 C 5,8 km/h (2 Bft)
13.01.2010 19:40 -1,5 C 1,9 C -1,5 C -2,0 C -3,1 C 0,0 C 85 % 89 % 0 % 1011,1 hPa 0,0 l/m 5,1 km/h (1 Bft) NO 45 0 min 0,0 UV-I -3,7 C -5,2 C 6,1 km/h (2 Bft)
13.01.2010 19:45 -1,5 C 1,9 C -1,5 C -2,1 C -3,3 C 0,0 C 85 % 89 % 0 % 1011,1 hPa 0,0 l/m 5,6 km/h (1 Bft) NO 45 0 min 0,0 UV-I -3,7 C -5,6 C 9,5 km/h (2 Bft)
13.01.2010 19:50 -1,5 C 1,7 C -1,3 C -2,1 C -3,2 C 0,0 C 85 % 89 % 0 % 1011,1 hPa 0,0 l/m 5,5 km/h (1 Bft) NO 45 0 min 0,0 UV-I -3,7 C -5,5 C 2,3 km/h (1 Bft)
13.01.2010 19:55 -1,5 C 1,7 C -1,3 C -1,9 C -2,6 C 0,0 C 85 % 89 % 0 % 1011,1 hPa 0,0 l/m 4,2 km/h (1 Bft) NO 45 0 min 0,0 UV-I -3,7 C -2,6 C 4,0 km/h (1 Bft)
13.01.2010 20:00 -1,3 C 1,7 C -1,3 C -1,8 C -2,7 C 0,0 C 85 % 88 % 0 % 1011,1 hPa 0,0 l/m 4,3 km/h (1 Bft) NO 45 0 min 0,0 UV-I -3,5 C -2,7 C 4,2 km/h (1 Bft)
13.01.2010 20:05 -1,3 C 1,7 C -1,3 C -1,8 C -2,9 C 0,0 C 85 % 88 % 0 % 1011,1 hPa 0,0 l/m 5,1 km/h (1 Bft) NO 45 0 min 0,0 UV-I -3,5 C -4,9 C 10,0 km/h (2 Bft)
13.01.2010 20:15 -1,3 C 1,7 C -1,3 C -1,8 C -2,7 C 0,0 C 85 % 88 % 0 % 1011,1 hPa 0,0 l/m 4,3 km/h (1 Bft) NO 45 0 min 0,0 UV-I -3,5 C -2,7 C 6,1 km/h (2 Bft)
13.01.2010 20:20 -1,4 C 1,7 C -1,3 C -1,8 C -2,5 C 0,0 C 84 % 88 % 0 % 1011,1 hPa 0,0 l/m 4,3 km/h (1 Bft) NO 45 0 min 0,0 UV-I -3,7 C -2,5 C 6,0 km/h (2 Bft)
13.01.2010 20:25 -1,3 C 1,9 C -1,3 C -1,8 C -2,9 C 0,0 C 85 % 88 % 0 % 1011,1 hPa 0,0 l/m 4,8 km/h (1 Bft) NO 45 0 min 0,0 UV-I -3,5 C -4,8 C 4,2 km/h (1 Bft)
13.01.2010 20:30 -1,3 C 1,7 C -1,3 C -1,8 C -2,9 C 0,0 C 85 % 88 % 0 % 1011,1 hPa 0,0 l/m 5,1 km/h (1 Bft) NO 45 0 min 0,0 UV-I -3,5 C -4,9 C 3,5 km/h (1 Bft)
13.01.2010 20:35 -1,3 C 1,9 C -1,3 C -1,8 C -2,8 C 0,0 C 84 % 88 % 0 % 1011,1 hPa 0,0 l/m 5,0 km/h (1 Bft) NO 45 0 min 0,0 UV-I -3,6 C -4,8 C 8,4 km/h (2 Bft)
13.01.2010 20:40 -1,3 C 1,7 C -1,3 C -1,8 C -2,8 C 0,0 C 84 % 88 % 0 % 1011,1 hPa 0,0 l/m 5,0 km/h (1 Bft) NO 45 0 min 0,0 UV-I -3,6 C -4,8 C 7,9 km/h (2 Bft)
13.01.2010 20:45 -1,3 C 1,7 C -1,1 C -1,8 C -2,7 C 0,0 C 84 % 88 % 0 % 1011,1 hPa 0,0 l/m 4,7 km/h (1 Bft) NO 45 0 min 0,0 UV-I -3,6 C -4,5 C 2,4 km/h (1 Bft)
13.01.2010 20:50 -1,3 C 1,7 C -1,3 C -1,7 C -2,4 C 0,0 C 84 % 88 % 0 % 1011,1 hPa 0,0 l/m 4,2 km/h (1 Bft) NO 45 0 min 0,0 UV-I -3,6 C -2,4 C 4,5 km/h (1 Bft)
13.01.2010 20:55 -1,3 C 1,7 C -1,3 C -1,4 C -1,7 C 0,0 C 84 % 88 % 0 % 1011,1 hPa 0,0 l/m 3,1 km/h (1 Bft) NO 45 0 min 0,0 UV-I -3,6 C -1,7 C 2,3 km/h (1 Bft)
13.01.2010 21:00 -1,3 C 1,7 C -1,3 C -1,4 C -1,6 C 0,0 C 85 % 88 % 0 % 1011,1 hPa 0,0 l/m 2,7 km/h (1 Bft) NO 45 0 min 0,0 UV-I -3,5 C -1,6 C 2,6 km/h (1 Bft)
13.01.2010 21:10 -1,3 C 1,9 C -1,1 C -1,4 C -1,7 C 0,0 C 85 % 88 % 0 % 1011,1 hPa 0,0 l/m 3,1 km/h (1 Bft) NO 45 0 min 0,0 UV-I -3,5 C -1,7 C 6,1 km/h (2 Bft)
13.01.2010 21:15 -1,3 C 1,7 C -1,3 C -1,4 C -1,6 C 0,0 C 85 % 88 % 0 % 1011,1 hPa 0,0 l/m 2,7 km/h (1 Bft) NO 45 0 min 0,0 UV-I -3,5 C -1,6 C 1,6 km/h (1 Bft)
13.01.2010 21:20 -1,3 C 1,7 C -1,3 C -1,3 C -1,3 C 0,0 C 84 % 88 % 0 % 1011,1 hPa 0,0 l/m 2,6 km/h (1 Bft) NO 45 0 min 0,0 UV-I -3,6 C -1,3 C 4,8 km/h (1 Bft)
13.01.2010 21:25 -1,3 C 1,7 C -1,3 C -1,4 C -1,6 C 0,0 C 84 % 88 % 0 % 1011,1 hPa 0,0 l/m 2,9 km/h (1 Bft) NO 45 0 min 0,0 UV-I -3,6 C -1,6 C 1,6 km/h (1 Bft)
13.01.2010 21:30 -1,3 C 1,7 C -1,3 C -1,4 C -1,6 C 0,0 C 84 % 88 % 0 % 1011,1 hPa 0,0 l/m 2,7 km/h (1 Bft) NO 45 0 min 0,0 UV-I -3,6 C -1,6 C 0,0 km/h (0 Bft)
13.01.2010 21:35 -1,3 C 1,7 C -1,1 C -1,1 C -1,1 C 0,2 C 84 % 88 % 0 % 1011,1 hPa 0,0 l/m 1,3 km/h (1 Bft) NO 45 0 min 0,0 UV-I -3,6 C -1,1 C 0,0 km/h (0 Bft)
13.01.2010 21:40 -1,3 C 1,7 C -1,2 C -1,1 C -1,1 C 0,2 C 84 % 88 % 0 % 1011,1 hPa 0,0 l/m 1,8 km/h (1 Bft) NO 45 0 min 0,0 UV-I -3,6 C -1,1 C 5,8 km/h (2 Bft)
13.01.2010 21:45 -1,3 C 1,7 C -1,2 C -1,5 C -1,9 C 0,0 C 84 % 88 % 0 % 1011,1 hPa 0,0 l/m 3,4 km/h (1 Bft) NO 45 0 min 0,0 UV-I -3,6 C -1,9 C 5,1 km/h (1 Bft)
13.01.2010 21:50 -1,3 C 1,7 C -1,2 C -1,6 C -2,2 C 0,0 C 84 % 88 % 0 % 1011,1 hPa 0,0 l/m 3,9 km/h (1 Bft) NO 45 0 min 0,0 UV-I -3,6 C -2,2 C 4,2 km/h (1 Bft)
13.01.2010 21:55 -1,3 C 1,7 C -1,1 C -1,2 C -1,2 C 0,1 C 84 % 88 % 0 % 1011,1 hPa 0,0 l/m 2,4 km/h (1 Bft) NO 45 0 min 0,0 UV-I -3,6 C -1,2 C 3,1 km/h (1 Bft)
13.01.2010 22:00 -1,3 C 1,7 C -1,2 C -1,1 C -1,1 C 0,2 C 84 % 88 % 0 % 1011,1 hPa 0,0 l/m 2,1 km/h (1 Bft) NO 45 0 min 0,0 UV-I -3,6 C -1,1 C 3,9 km/h (1 Bft)
13.01.2010 22:10 -1,3 C 1,7 C -1,3 C -1,2 C -1,2 C 0,1 C 84 % 88 % 0 % 1011,1 hPa 0,0 l/m 2,4 km/h (1 Bft) NO 45 0 min 0,0 UV-I -3,6 C -1,2 C 1,6 km/h (1 Bft)
13.01.2010 22:15 -1,3 C 1,7 C -1,2 C -1,2 C -1,2 C 0,1 C 84 % 88 % 0 % 1011,1 hPa 0,0 l/m 1,6 km/h (1 Bft) NO 45 0 min 0,0 UV-I -3,6 C -1,2 C 2,9 km/h (1 Bft)
13.01.2010 22:20 -1,3 C 1,9 C -1,1 C -1,2 C -1,2 C 0,1 C 84 % 88 % 0 % 1011,1 hPa 0,0 l/m 2,1 km/h (1 Bft) NO 45 0 min 0,0 UV-I -3,6 C -1,2 C 5,0 km/h (1 Bft)
13.01.2010 22:25 -1,3 C 1,7 C -1,3 C -1,2 C -1,2 C 0,1 C 83 % 88 % 0 % 1011,1 hPa 0,0 l/m 1,4 km/h (1 Bft) NO 45 0 min 0,0 UV-I -3,8 C -1,2 C 0,0 km/h (0 Bft)
13.01.2010 22:30 -1,3 C 1,7 C -1,3 C -1,2 C -1,2 C 0,1 C 84 % 88 % 0 % 1011,1 hPa 0,0 l/m 0,8 km/h (0 Bft) NO 45 0 min 0,0 UV-I -3,6 C -1,2 C 0,0 km/h (0 Bft)
13.01.2010 22:35 -1,3 C 1,7 C -1,3 C -1,3 C -1,3 C 0,0 C 84 % 88 % 0 % 1011,2 hPa 0,0 l/m 0,2 km/h (0 Bft) NO 45 0 min 0,0 UV-I -3,6 C -1,3 C 1,6 km/h (1 Bft)
13.01.2010 22:40 -1,3 C 1,7 C -1,3 C -1,3 C -1,3 C 0,0 C 84 % 88 % 0 % 1011,2 hPa 0,0 l/m 0,2 km/h (0 Bft) NO 45 0 min 0,0 UV-I -3,6 C -1,3 C 0,0 km/h (0 Bft)
13.01.2010 22:45 -1,3 C 1,7 C -1,3 C -1,3 C -1,3 C 0,0 C 83 % 88 % 0 % 1011,2 hPa 0,0 l/m 0,6 km/h (0 Bft) NO 45 0 min 0,0 UV-I -3,8 C -1,3 C 1,9 km/h (1 Bft)
13.01.2010 22:50 -1,3 C 1,7 C -1,3 C -1,3 C -1,4 C 0,0 C 84 % 88 % 0 % 1011,2 hPa 0,0 l/m 1,3 km/h (1 Bft) NO 45 0 min 0,0 UV-I -3,6 C -1,4 C 3,1 km/h (1 Bft)
13.01.2010 22:55 -1,3 C 1,7 C -1,3 C -1,3 C -1,4 C 0,0 C 84 % 88 % 0 % 1011,1 hPa 0,0 l/m 1,1 km/h (1 Bft) NO 45 0 min 0,0 UV-I -3,6 C -1,4 C 0,0 km/h (0 Bft)
13.01.2010 23:00 -1,3 C 1,7 C -1,3 C -1,3 C -1,4 C 0,0 C 84 % 88 % 0 % 1011,1 hPa 0,0 l/m 0,3 km/h (0 Bft) NO 45 0 min 0,0 UV-I -3,6 C -1,4 C 0,0 km/h (0 Bft)
13.01.2010 23:10 -1,3 C 1,7 C -1,3 C -1,4 C -1,5 C 0,0 C 84 % 87 % 0 % 1011,1 hPa 0,0 l/m 1,1 km/h (1 Bft) NO 45 0 min 0,0 UV-I -3,6 C -1,5 C 2,1 km/h (1 Bft)
13.01.2010 23:15 -1,4 C 1,7 C -1,3 C -1,4 C -1,5 C 0,0 C 84 % 88 % 0 % 1011,1 hPa 0,0 l/m 1,1 km/h (1 Bft) NO 45 0 min 0,0 UV-I -3,7 C -1,5 C 0,0 km/h (0 Bft)
13.01.2010 23:20 -1,3 C 1,7 C -1,3 C -1,4 C -1,5 C 0,0 C 84 % 87 % 0 % 1011,1 hPa 0,0 l/m 1,4 km/h (1 Bft) NO 45 0 min 0,0 UV-I -3,6 C -1,5 C 3,1 km/h (1 Bft)
13.01.2010 23:25 -1,3 C 1,7 C -1,3 C -1,4 C -1,5 C 0,0 C 84 % 88 % 0 % 1011,1 hPa 0,0 l/m 1,0 km/h (0 Bft) NO 45 0 min 0,0 UV-I -3,6 C -1,5 C 2,3 km/h (1 Bft)
13.01.2010 23:30 -1,3 C 1,7 C -1,3 C -1,4 C -1,6 C 0,0 C 83 % 87 % 0 % 1011,1 hPa 0,0 l/m 1,8 km/h (1 Bft) NO 45 0 min 0,0 UV-I -3,8 C -1,6 C 4,0 km/h (1 Bft)
13.01.2010 23:35 -1,3 C 1,7 C -1,3 C -1,4 C -1,6 C 0,0 C 83 % 87 % 0 % 1011,4 hPa 0,0 l/m 1,8 km/h (1 Bft) NO 45 0 min 0,0 UV-I -3,8 C -1,6 C 0,0 km/h (0 Bft)
13.01.2010 23:40 -1,3 C 1,7 C -1,3 C -1,4 C -1,6 C 0,0 C 83 % 87 % 0 % 1011,4 hPa 0,0 l/m 1,8 km/h (1 Bft) NO 45 0 min 0,0 UV-I -3,8 C -1,6 C 2,4 km/h (1 Bft)
13.01.2010 23:45 -1,5 C 1,7 C -1,5 C -1,6 C -1,7 C 0,0 C 83 % 87 % 0 % 1011,4 hPa 0,0 l/m 0,8 km/h (0 Bft) NO 45 0 min 0,0 UV-I -4,0 C -1,7 C 0,0 km/h (0 Bft)
13.01.2010 23:50 -1,5 C 1,7 C -1,5 C -1,6 C -1,7 C 0,0 C 83 % 87 % 0 % 1011,4 hPa 0,0 l/m 0,6 km/h (0 Bft) NO 45 0 min 0,0 UV-I -4,0 C -1,7 C 2,7 km/h (1 Bft)
13.01.2010 23:55 -1,5 C 1,7 C -1,6 C -1,6 C -1,8 C 0,0 C 83 % 87 % 0 % 1011,5 hPa 0,0 l/m 1,1 km/h (1 Bft) NO 45 0 min 0,0 UV-I -4,0 C -1,8 C 2,4 km/h (1 Bft)
_ Min-Zeit 02:15 12:15 02:20 02:25 02:25 00:00 13:15 13:10 00:00 14:55 - 00:00 - - - 00:00 02:15 04:00 00:00
Minimum _ -10,5 C 1,7 C -11,5 C -11,4 C -13,1 C 0,0 C 82 % 87 % 0 % 1010,5 hPa - 0,0 km/h (0 Bft) - - - 0,0 UV-I -12,8 C -19,1 C 0,0 km/h (0 Bft)
_ Max-Zeit 20:00 02:40 20:45 21:35 21:35 21:35 06:50 03:10 00:00 00:00 00:00 15:30 - - 00:00 00:00 20:00 21:35 15:25
Maximum _ -1,3 C 2,0 C -1,1 C -1,1 C -1,1 C 0,2 C 90 % 93 % 0 % 1013,6 hPa 0,0 l/m 11,1 km/h
NO (2 Bft)
- - 0 min 0,0 UV-I -3,5 C -1,1 C 19,6 km/h
NO (3 Bft)
Durchschnitt _ -4,5 C 1,9 C -4,8 C -5,2 C -6,7 C 0,0 C 86 % 90 % 0 % 1011,5 hPa #0,0 l/m 4,2 km/h (1 Bft) NO - #0 min. 0,0 UV-I -6,6 C -8,2 C 5,1 km/h (1 Bft)
2013 www.wetterstation-wechselburg.de